weather.gov     
National Weather Service

Terminal Aerodrome Forecast
NWS Homepage
This page is being discontinued on March 12, 2014.
The same data is available at this site. Please update your bookmarks.
Thank you, and we apologize for the inconvenience.
Please send an email to SR-SRH.Webmaster@noaa.gov with any concerns.


Current Version
Previous Version:    01  02  03  04  05  06  07  08  09  10  11  12  13  14  15  16  17  18  19  20  21  22  23  24  25  26  27  28  29  30  
   31  32  33  34  35  36  37  38  39  
[Printable]
505
FTUS43 KGRR 202300
TAFAZO
TAF
KAZO 202324Z 2100/2124 30007KT P6SM SKC
     FM210500 00000KT P6SM VCSH SCT040 BKN080
     FM210800 00000KT 4SM BR VCSH SCT035 BKN120
     FM211000 14003KT 2SM BR BKN100
     FM211400 17004KT 4SM HZ BKN050
     FM211600 21008KT P6SM VCTS BKN035CB BKN120=


U.S. Dept. of Commerce
NOAA National Weather Service
1325 East West Highway
Silver Spring, MD 20910
E-mail: w-nws.webmaster@noaa.gov
Page last modified: May 16, 2007
NATIONAL WEATHER SERVICE: for Safety, for Work, for Fun - FOR LIFE